Weather History for Provincetown, MA

Change the Weather History Date:

Friday, September 14, 2012

  Actual Average Record
Temperature  
Mean Temperature 68 °F -  
Max Temperature 75 °F 69 °F 80 °F (1951)
Min Temperature 62 °F 57 °F 44 °F (2014)
Cooling Degree Days 4    
Growing Degree Days 18 (Base 50)    
Moisture  
Dew Point 63 °F    
Average Humidity 85    
Maximum Humidity 100    
Minimum Humidity 61    
Precipitation  
Precipitation 0.00 in - - ()
Sea Level Pressure  
Sea Level Pressure 30.21 in    
Wind  
Wind Speed 9 mph (SSW)    
Max Wind Speed 14 mph    
Max Gust Speed 20 mph    
Visibility 10 miles    
Events      
Averages and records for this station are not official NWS values.
T = Trace of Precipitation, MM = Missing Value Source: NWS Daily Summary

Daily Weather History Graph

Daily Weather History Graph

Search for Another Location

Airport:

Trip Planner

Search our weather history database for the weather conditions in past years. The results will help you decide how hot, cold, wet, or windy it might be!

Date:

Astronomy

Sep. 14, 2012 Rise Set
Actual Time 6:20 AM EDT 6:51 PM EDT
Civil Twilight 5:52 AM EDT 7:19 PM EDT
Nautical Twilight 5:19 AM EDT 7:52 PM EDT
Astronomical Twilight 4:44 AM EDT 8:26 PM EDT
Moon 4:40 AM EDT (9/14) 5:46 PM EDT (9/14)
Length of Visible Light 13h 27m
Length of Day
12h 31m
Waning Crescent, 3% of the Moon is Illuminated
Sep 14
Waning Crescent
Sep 15
New
Sep 22
First Quarter
Sep 29
Full
Oct 8
Last Quarter

Hourly Weather History & Observations

Time (EDT) Temp. Dew Point Humidity Pressure Visibility Wind Dir Wind Speed Gust Speed Precip Events Conditions
12:15 AM 62.6 °F 60.8 °F 94% 30.29 in 10.0 mi SSW 9.2 mph - N/A   Clear
12:35 AM 62.6 °F 60.8 °F 94% 30.29 in 10.0 mi SSW 8.1 mph - N/A   Clear
1:15 AM 62.6 °F 60.8 °F 94% 30.29 in 10.0 mi SSW 9.2 mph - N/A   Clear
1:35 AM 62.6 °F 60.8 °F 94% 30.29 in 10.0 mi SSW 8.1 mph - N/A   Clear
1:55 AM 62.6 °F 60.8 °F 94% 30.28 in 10.0 mi SSW 8.1 mph - N/A   Clear
2:15 AM 62.6 °F 60.8 °F 94% 30.28 in 10.0 mi SSW 8.1 mph - N/A   Clear
2:35 AM 62.6 °F 60.8 °F 94% 30.28 in 10.0 mi SSW 8.1 mph - N/A   Clear
2:55 AM 62.6 °F 60.8 °F 94% 30.28 in 10.0 mi SSW 6.9 mph - N/A   Clear
3:15 AM 62.6 °F 60.8 °F 94% 30.28 in 10.0 mi SSW 6.9 mph - N/A   Clear
3:35 AM 62.6 °F 60.8 °F 94% 30.28 in 10.0 mi SSW 6.9 mph - N/A   Clear
3:55 AM 62.6 °F 60.8 °F 94% 30.27 in 10.0 mi SSW 6.9 mph - N/A   Clear
4:15 AM 62.6 °F 60.8 °F 94% 30.27 in 10.0 mi SSW 6.9 mph - N/A   Clear
4:55 AM 62.6 °F 60.8 °F 94% 30.27 in 10.0 mi SSW 6.9 mph - N/A   Clear
5:15 AM 62.6 °F 60.8 °F 94% 30.27 in 10.0 mi SSW 6.9 mph - N/A   Clear
5:55 AM 62.6 °F 60.8 °F 94% 30.26 in 10.0 mi SSW 8.1 mph - N/A   Clear
6:15 AM 62.6 °F 60.8 °F 94% 30.26 in 10.0 mi SSW 8.1 mph - N/A   Clear
6:35 AM 62.6 °F 60.8 °F 94% 30.26 in 10.0 mi SSW 8.1 mph - N/A   Clear
6:55 AM 62.6 °F 60.8 °F 94% 30.26 in 10.0 mi SSW 6.9 mph - N/A   Clear
7:15 AM 64.4 °F 62.6 °F 94% 30.26 in 10.0 mi SSW 8.1 mph - N/A   Clear
7:35 AM 64.4 °F 62.6 °F 94% 30.25 in 10.0 mi SSW 8.1 mph - N/A   Clear
7:55 AM 66.2 °F 62.6 °F 88% 30.25 in 10.0 mi SSW 8.1 mph - N/A   Clear
8:15 AM 66.2 °F 62.6 °F 88% 30.25 in 10.0 mi SW 8.1 mph - N/A   Clear
8:35 AM 66.2 °F 64.4 °F 94% 30.25 in 10.0 mi SW 8.1 mph - N/A   Clear
9:15 AM 68.0 °F 62.6 °F 83% 30.25 in 10.0 mi SSW 11.5 mph - N/A   Clear
9:35 AM 69.8 °F 64.4 °F 83% 30.25 in 10.0 mi SSW 10.4 mph - N/A   Clear
9:55 AM 69.8 °F 62.6 °F 78% 30.24 in 10.0 mi SSW 9.2 mph - N/A   Clear
10:35 AM 71.6 °F 64.4 °F 78% 30.24 in 10.0 mi SSW 9.2 mph - N/A   Clear
10:55 AM 73.4 °F 64.4 °F 73% 30.23 in 10.0 mi SSW 11.5 mph - N/A   Clear
11:15 AM 73.4 °F 62.6 °F 69% 30.23 in 10.0 mi SSW 12.7 mph 17.3 mph N/A   Clear
11:35 AM 73.4 °F 62.6 °F 69% 30.22 in 10.0 mi SSW 11.5 mph 17.3 mph N/A   Clear
12:15 PM 75.2 °F 62.6 °F 65% 30.21 in 10.0 mi SSW 9.2 mph - N/A   Clear
12:55 PM 75.2 °F 62.6 °F 65% 30.20 in 10.0 mi SSW 10.4 mph - N/A   Clear
1:15 PM 75.2 °F 60.8 °F 61% 30.19 in 10.0 mi SSW 12.7 mph 16.1 mph N/A   Clear
1:35 PM 75.2 °F 62.6 °F 65% 30.19 in 10.0 mi SSW 11.5 mph - N/A   Clear
1:55 PM 75.2 °F 64.4 °F 69% 30.18 in 10.0 mi SSW 12.7 mph - N/A   Clear
2:15 PM 75.2 °F 64.4 °F 69% 30.18 in 10.0 mi SSW 13.8 mph - N/A   Clear
2:35 PM 75.2 °F 62.6 °F 65% 30.17 in 10.0 mi SSW 11.5 mph - N/A   Clear
2:55 PM 75.2 °F 64.4 °F 69% 30.17 in 10.0 mi SSW 12.7 mph 19.6 mph N/A   Clear
3:15 PM 73.4 °F 64.4 °F 73% 30.17 in 10.0 mi SSW 10.4 mph - N/A   Clear
4:15 PM 73.4 °F 62.6 °F 69% 30.16 in 9.0 mi SSW 13.8 mph - N/A   Clear
4:35 PM 71.6 °F 62.6 °F 73% 30.16 in 10.0 mi SSW 11.5 mph 16.1 mph N/A   Clear
4:55 PM 71.6 °F 64.4 °F 78% 30.16 in 10.0 mi SSW 9.2 mph - N/A   Clear
5:15 PM 71.6 °F 64.4 °F 78% 30.15 in 10.0 mi SSW 11.5 mph - N/A   Clear
5:35 PM 69.8 °F 64.4 °F 83% 30.15 in 10.0 mi SW 9.2 mph - N/A   Clear
5:55 PM 69.8 °F 64.4 °F 83% 30.15 in 9.0 mi SW 9.2 mph - N/A   Clear
6:16 PM 68.0 °F 62.6 °F 83% 30.15 in 10.0 mi SSW 11.5 mph - N/A   Clear
6:35 PM 68.0 °F 64.4 °F 88% 30.15 in 10.0 mi SSW 11.5 mph - N/A   Clear
7:15 PM 66.2 °F 62.6 °F 88% 30.15 in 10.0 mi SSW 9.2 mph - N/A   Clear
7:35 PM 66.2 °F 62.6 °F 88% 30.15 in 10.0 mi SSW 8.1 mph - N/A   Clear
7:55 PM 64.4 °F 62.6 °F 94% 30.15 in 10.0 mi SSW 8.1 mph - N/A   Clear
8:15 PM 64.4 °F 62.6 °F 94% 30.14 in 10.0 mi SSW 6.9 mph - N/A   Clear
8:35 PM 64.4 °F 62.6 °F 94% 30.14 in 10.0 mi South 9.2 mph - N/A   Clear
8:55 PM 64.4 °F 62.6 °F 94% 30.13 in 10.0 mi South 8.1 mph - N/A   Clear
9:15 PM 64.4 °F 62.6 °F 94% 30.13 in 10.0 mi South 9.2 mph - N/A   Clear
9:55 PM 66.2 °F 62.6 °F 88% 30.12 in 10.0 mi South 9.2 mph - N/A   Clear
10:35 PM 66.2 °F 64.4 °F 94% 30.12 in 10.0 mi South 10.4 mph - N/A   Clear
10:55 PM 66.2 °F 64.4 °F 94% 30.12 in 10.0 mi South 9.2 mph - N/A   Clear
11:15 PM 66.2 °F 64.4 °F 94% 30.12 in 10.0 mi South 9.2 mph - N/A   Clear
11:55 PM 64.4 °F 64.4 °F 100% 30.11 in 10.0 mi South 8.1 mph - N/A   Clear